Location: Six Mile Lake
(44.9000°N, 79.7170°W)
Time: 00:00:21
(UTC-04:00)

JY1SAT - Pass Details

Date: 28 June 2022
Orbit: 564 x 586 km, 97.6° (Epoch: 17 August)

Event Time Altitude Azimuth Distance (km) Brightness Sun altitude
Exits shadow 00:02:29 - 234° (SW) 2,044 ? -19.4°
Reaches altitude 10° 00:03:07 10° 241° (WSW) 1,910 ? -19.5°
Maximum altitude 00:05:09 13° 270° (W) 1,706 ? -19.6°
Drops below altitude 10° 00:07:11 10° 300° (WNW) 1,919 ? -19.7°
Sets 00:10:26 0° 328° (NNW) 2,826 ? -19.9°
